Zurück zum Katalog

STARLINK-4196

AktivKommunikationVLEO
NORAD 52859·PAYLOAD·🇺🇸 United States

Gestartet Jun 17, 2022 von Cape Canaveral Space Force Station

Loading…

Nächste Überflüge (nächste 24 Stunden)

TLE

AktuellSource: CelesTrak SupGP

Epoche: Sep 14, 2026, 20:42 UTC

1 52859C 22062AF  26257.86298611  .00028555  00000+0  86654-3 0  2577
2 52859  53.1579 244.0539 0001239  87.2467 134.3925 15.33532422    15

Verfolge STARLINK-4196 in Echtzeit mit AllMySat

Download on the App Store